sat.trackr.live / text

‹ back to catalog

CSTP 1.2 (STC 1.2)

NORAD 57186 · 2023-091W

PAYLOAD ACTIVE UNKNOWN

§ Identity

Operator
Country
CIS
Launch date
2023-06-27
Launch site
VOSTO
Launch vehicle
Mass (kg)
RCS (m²)

External: N2YO · Heavens-Above · Gunter

§ Orbital elements

Epoch: 2026-05-25T04:47:36.877632Z

Period
94.21 min
Inclination
97.5160°
Eccentricity
0.0018934
Mean motion
15.28455203 rev/d
Perigee alt
467.4 km
Apogee alt
493.4 km
Semi-major
6,858.6 km
B*
3.2207e-4
RAAN
211.2404°
Arg perigee
169.9183°
Mean anomaly
190.2440°
Rev number
16,094

§ Raw data

CSTP 1.2 (STC 1.2)1 57186U 23091W   26145.19973238  .00008891  00000+0  32207-3 0  99942 57186  97.5160 211.2404 0018934 169.9183 190.2440 15.28455203160948

JSON: /api/v1/satellites/57186 · /tle

For live sub-satellite position, see the globe view (requires WebGL).

§ Visibility from observer

Set your observer location to see the next 7 days of passes ≥ 10°. The values pass through the URL so the page stays shareable.

No JS? Fill the form by hand. The geolocation button needs JavaScript.

§ Radio — SatNOGS DB

ModeDescriptionDownlinkUplink
LoRa Mode U - LoRa 436.270 MHz

1 transmitter · refreshed weekly from db.satnogs.org